Time,TemperatureF,DewpointF,PressureIn,WindDirection,WindDirectionDegrees,WindSpeedMPH,WindSpeedGustMPH,Humidity,HourlyPrecipIn,Conditions,Clouds,dailyrainin,SoftwareType,DateUTC
2013-05-01 00:01:00,63.8,54.2,29.85,East,94,0.0,2.0,71,0.00,,---,0.00,VWS V14.01,2013-05-01 05:01:00,
2013-05-01 00:06:00,63.7,54.5,29.85,East,94,0.0,0.0,72,0.00,,---,0.00,VWS V14.01,2013-05-01 05:06:00,
2013-05-01 00:11:00,63.5,54.3,29.85,East,94,0.0,0.0,72,0.00,,---,0.00,VWS V14.01,2013-05-01 05:11:00,
2013-05-01 00:16:00,63.3,54.1,29.85,East,94,0.0,0.0,72,0.00,,---,0.00,VWS V14.01,2013-05-01 05:16:00,
2013-05-01 00:21:00,62.9,54.1,29.85,East,94,0.0,0.0,73,0.00,,---,0.00,VWS V14.01,2013-05-01 05:21:00,
2013-05-01 00:26:00,62.6,54.2,29.85,East,95,0.0,0.0,74,0.00,,---,0.00,VWS V14.01,2013-05-01 05:26:00,
2013-05-01 00:31:00,62.1,54.1,29.86,East,94,0.0,0.0,75,0.00,,---,0.00,VWS V14.01,2013-05-01 05:31:00,
2013-05-01 00:36:00,61.6,54.0,29.86,East,95,0.0,0.0,76,0.00,,---,0.00,VWS V14.01,2013-05-01 05:36:00,
2013-05-01 00:41:00,61.2,53.9,29.86,East,95,0.0,0.0,77,0.00,,---,0.00,VWS V14.01,2013-05-01 05:41:00,
2013-05-01 00:46:00,60.7,53.8,29.86,East,95,0.0,0.0,78,0.00,,---,0.00,VWS V14.01,2013-05-01 05:46:00,
2013-05-01 00:51:00,60.2,54.0,29.86,East,94,0.0,0.0,80,0.00,,---,0.00,VWS V14.01,2013-05-01 05:51:00,
2013-05-01 00:56:00,59.8,54.0,29.86,East,95,0.0,0.0,81,0.00,,---,0.00,VWS V14.01,2013-05-01 05:56:00,
2013-05-01 01:01:00,59.5,53.7,29.86,East,94,0.0,0.0,81,0.00,,---,0.00,VWS V14.01,2013-05-01 06:01:00,
2013-05-01 01:06:00,59.0,53.5,29.86,East,95,0.0,0.0,82,0.00,,---,0.00,VWS V14.01,2013-05-01 06:06:00,
2013-05-01 01:11:00,59.0,53.8,29.86,East,94,0.0,0.0,83,0.00,,---,0.00,VWS V14.01,2013-05-01 06:11:00,
2013-05-01 01:16:00,59.0,53.8,29.86,East,94,0.0,0.0,83,0.00,,---,0.00,VWS V14.01,2013-05-01 06:16:00,
2013-05-01 01:21:00,58.6,53.5,29.86,East,94,0.0,0.0,83,0.00,,---,0.00,VWS V14.01,2013-05-01 06:21:00,
2013-05-01 01:26:00,58.3,53.2,29.86,East,94,0.0,0.0,83,0.00,,---,0.00,VWS V14.01,2013-05-01 06:26:00,
2013-05-01 01:31:00,58.0,53.2,29.86,East,95,0.0,0.0,84,0.00,,---,0.00,VWS V14.01,2013-05-01 06:31:00,
2013-05-01 01:36:00,57.7,52.9,29.86,East,94,0.0,0.0,84,0.00,,---,0.00,VWS V14.01,2013-05-01 06:36:00,
2013-05-01 01:41:00,57.5,53.0,29.86,East,95,0.0,0.0,85,0.00,,---,0.00,VWS V14.01,2013-05-01 06:41:00,
2013-05-01 01:46:00,57.3,53.2,29.86,East,94,0.0,0.0,86,0.00,,---,0.00,VWS V14.01,2013-05-01 06:46:00,
2013-05-01 01:51:00,57.3,53.2,29.86,East,94,0.0,0.0,86,0.00,,---,0.00,VWS V14.01,2013-05-01 06:51:00,
2013-05-01 01:56:00,57.2,53.4,29.86,East,95,0.0,0.0,87,0.00,,---,0.00,VWS V14.01,2013-05-01 06:56:00,
2013-05-01 02:01:00,57.2,53.4,29.86,East,95,0.0,0.0,87,0.00,,---,0.00,VWS V14.01,2013-05-01 07:01:00,
2013-05-01 02:06:00,57.0,53.2,29.86,East,95,0.0,0.0,87,0.00,,---,0.00,VWS V14.01,2013-05-01 07:06:00,
2013-05-01 02:11:00,56.9,53.1,29.86,East,94,0.0,0.0,87,0.00,,---,0.00,VWS V14.01,2013-05-01 07:11:00,
2013-05-01 02:16:00,56.7,52.9,29.86,East,94,0.0,0.0,87,0.00,,---,0.00,VWS V14.01,2013-05-01 07:16:00,
2013-05-01 02:21:00,56.5,52.7,29.86,East,94,0.0,0.0,87,0.00,,---,0.00,VWS V14.01,2013-05-01 07:21:00,
2013-05-01 02:26:00,56.2,52.4,29.86,East,94,0.0,0.0,87,0.00,,---,0.00,VWS V14.01,2013-05-01 07:26:00,
2013-05-01 02:31:00,56.1,52.6,29.86,East,94,0.0,0.0,88,0.00,,---,0.00,VWS V14.01,2013-05-01 07:31:00,
2013-05-01 02:36:00,55.9,52.4,29.86,East,94,0.0,0.0,88,0.00,,---,0.00,VWS V14.01,2013-05-01 07:36:00,
2013-05-01 02:41:00,55.8,52.6,29.86,East,94,0.0,0.0,89,0.00,,---,0.00,VWS V14.01,2013-05-01 07:41:00,
2013-05-01 02:46:00,55.7,52.5,29.87,East,94,0.0,0.0,89,0.00,,---,0.00,VWS V14.01,2013-05-01 07:46:00,
2013-05-01 02:51:00,55.6,52.4,29.87,East,95,0.0,0.0,89,0.00,,---,0.00,VWS V14.01,2013-05-01 07:51:00,
2013-05-01 02:56:00,55.5,52.3,29.87,East,95,0.0,0.0,89,0.00,,---,0.00,VWS V14.01,2013-05-01 07:56:00,
2013-05-01 03:01:00,55.4,52.5,29.87,East,94,0.0,0.0,90,0.00,,---,0.00,VWS V14.01,2013-05-01 08:01:00,
2013-05-01 03:06:00,55.4,52.5,29.87,East,95,0.0,0.0,90,0.00,,---,0.00,VWS V14.01,2013-05-01 08:06:00,
2013-05-01 03:11:00,55.6,52.7,29.87,East,94,0.0,0.0,90,0.00,,---,0.00,VWS V14.01,2013-05-01 08:11:00,
2013-05-01 03:16:00,55.7,52.8,29.87,East,95,0.0,0.0,90,0.00,,---,0.00,VWS V14.01,2013-05-01 08:16:00,
2013-05-01 03:21:00,56.0,53.1,29.87,East,94,0.0,0.0,90,0.00,,---,0.00,VWS V14.01,2013-05-01 08:21:00,
2013-05-01 03:26:00,56.0,53.1,29.87,East,95,0.0,0.0,90,0.00,,---,0.00,VWS V14.01,2013-05-01 08:26:00,
2013-05-01 03:31:00,55.9,53.0,29.87,East,95,0.0,0.0,90,0.00,,---,0.00,VWS V14.01,2013-05-01 08:31:00,
2013-05-01 03:36:00,55.7,52.8,29.87,East,94,0.0,0.0,90,0.00,,---,0.00,VWS V14.01,2013-05-01 08:36:00,
2013-05-01 03:41:00,55.6,52.7,29.87,East,95,0.0,0.0,90,0.00,,---,0.00,VWS V14.01,2013-05-01 08:41:00,
2013-05-01 03:46:00,55.5,52.6,29.87,East,94,0.0,0.0,90,0.00,,---,0.00,VWS V14.01,2013-05-01 08:46:00,
2013-05-01 03:51:00,55.5,52.6,29.87,East,95,0.0,0.0,90,0.00,,---,0.00,VWS V14.01,2013-05-01 08:51:00,
2013-05-01 03:56:00,55.3,52.4,29.87,East,94,0.0,0.0,90,0.00,,---,0.00,VWS V14.01,2013-05-01 08:56:00,
2013-05-01 04:01:00,55.2,52.3,29.87,East,94,0.0,0.0,90,0.00,,---,0.00,VWS V14.01,2013-05-01 09:01:00,
2013-05-01 04:06:00,55.0,52.4,29.87,East,95,0.0,0.0,91,0.00,,---,0.00,VWS V14.01,2013-05-01 09:06:00,
2013-05-01 04:11:00,54.9,52.3,29.87,East,94,0.0,0.0,91,0.00,,---,0.00,VWS V14.01,2013-05-01 09:11:00,
2013-05-01 04:16:00,54.8,52.2,29.87,East,94,0.0,0.0,91,0.00,,---,0.00,VWS V14.01,2013-05-01 09:16:00,
2013-05-01 04:21:00,54.8,52.2,29.87,East,94,0.0,0.0,91,0.00,,---,0.00,VWS V14.01,2013-05-01 09:21:00,
2013-05-01 04:26:00,54.8,52.2,29.87,East,95,0.0,0.0,91,0.00,,---,0.00,VWS V14.01,2013-05-01 09:26:00,
2013-05-01 04:31:00,54.7,52.1,29.87,East,94,0.0,0.0,91,0.00,,---,0.00,VWS V14.01,2013-05-01 09:31:00,
2013-05-01 04:36:00,54.6,52.0,29.87,East,94,0.0,0.0,91,0.00,,---,0.00,VWS V14.01,2013-05-01 09:36:00,
2013-05-01 04:41:00,54.6,52.0,29.87,East,94,0.0,0.0,91,0.00,,---,0.00,VWS V14.01,2013-05-01 09:41:00,
2013-05-01 04:46:00,54.5,52.2,29.88,East,95,0.0,0.0,92,0.00,,---,0.00,VWS V14.01,2013-05-01 09:46:00,
2013-05-01 04:51:00,54.5,52.2,29.88,East,94,0.0,0.0,92,0.00,,---,0.00,VWS V14.01,2013-05-01 09:51:00,
2013-05-01 04:56:00,54.5,52.2,29.88,East,94,0.0,0.0,92,0.00,,---,0.00,VWS V14.01,2013-05-01 09:56:00,
2013-05-01 05:01:00,54.6,52.3,29.88,East,94,0.0,0.0,92,0.00,,---,0.00,VWS V14.01,2013-05-01 10:01:00,
2013-05-01 05:06:00,55.1,52.8,29.88,East,94,0.0,0.0,92,0.00,,---,0.00,VWS V14.01,2013-05-01 10:06:00,
2013-05-01 05:11:00,55.7,53.4,29.88,East,94,0.0,0.0,92,0.00,,---,0.00,VWS V14.01,2013-05-01 10:11:00,
2013-05-01 05:16:00,55.9,53.6,29.88,East,95,0.0,0.0,92,0.00,,---,0.00,VWS V14.01,2013-05-01 10:16:00,
2013-05-01 05:21:00,55.9,53.3,29.88,East,95,0.0,0.0,91,0.00,,---,0.00,VWS V14.01,2013-05-01 10:21:00,
2013-05-01 05:26:00,56.2,53.6,29.88,East,94,0.0,0.0,91,0.00,,---,0.00,VWS V14.01,2013-05-01 10:26:00,
2013-05-01 05:31:00,56.3,53.7,29.89,East,95,0.0,0.0,91,0.00,,---,0.00,VWS V14.01,2013-05-01 10:31:00,
2013-05-01 05:36:00,56.7,54.1,29.89,East,94,0.0,0.0,91,0.00,,---,0.00,VWS V14.01,2013-05-01 10:36:00,
2013-05-01 05:41:00,57.1,54.2,29.89,East,95,0.0,0.0,90,0.00,,---,0.00,VWS V14.01,2013-05-01 10:41:00,
2013-05-01 05:46:00,57.5,54.3,29.89,East,94,0.0,0.0,89,0.00,,---,0.00,VWS V14.01,2013-05-01 10:46:00,
2013-05-01 05:51:00,57.7,54.5,29.89,East,94,0.0,0.0,89,0.00,,---,0.00,VWS V14.01,2013-05-01 10:51:00,
2013-05-01 05:56:00,58.0,54.5,29.89,SE,135,0.0,2.0,88,0.00,,---,0.00,VWS V14.01,2013-05-01 10:56:00,
2013-05-01 06:01:00,58.2,54.7,29.90,SE,134,0.0,2.0,88,0.00,,---,0.00,VWS V14.01,2013-05-01 11:01:00,
2013-05-01 06:06:00,58.4,54.5,29.90,SE,135,0.0,1.0,87,0.00,,---,0.00,VWS V14.01,2013-05-01 11:06:00,
2013-05-01 06:11:00,58.5,54.7,29.90,SE,135,0.0,1.0,87,0.00,,---,0.00,VWS V14.01,2013-05-01 11:11:00,
2013-05-01 06:16:00,58.6,54.8,29.90,SE,134,0.0,1.0,87,0.00,,---,0.00,VWS V14.01,2013-05-01 11:16:00,
2013-05-01 06:21:00,58.7,54.5,29.90,SSE,166,0.0,2.0,86,0.00,,---,0.00,VWS V14.01,2013-05-01 11:21:00,
2013-05-01 06:26:00,59.0,54.8,29.90,SSE,167,0.0,2.0,86,0.00,,---,0.00,VWS V14.01,2013-05-01 11:26:00,
2013-05-01 06:31:00,59.0,54.8,29.91,SSE,167,0.0,2.0,86,0.00,,---,0.00,VWS V14.01,2013-05-01 11:31:00,
2013-05-01 06:36:00,59.0,54.5,29.91,SSE,167,0.0,0.0,85,0.00,,---,0.00,VWS V14.01,2013-05-01 11:36:00,
2013-05-01 06:41:00,59.2,54.7,29.91,SSE,167,0.0,0.0,85,0.00,,---,0.00,VWS V14.01,2013-05-01 11:41:00,
2013-05-01 06:46:00,59.6,55.1,29.91,SSE,167,0.0,0.0,85,0.00,,---,0.00,VWS V14.01,2013-05-01 11:46:00,
2013-05-01 06:51:00,59.8,55.3,29.91,SSE,167,0.0,0.0,85,0.00,,---,0.00,VWS V14.01,2013-05-01 11:51:00,
2013-05-01 06:56:00,59.9,55.4,29.91,SSE,168,0.0,0.0,85,0.00,,---,0.00,VWS V14.01,2013-05-01 11:56:00,
2013-05-01 07:01:00,60.3,55.8,29.92,SSE,167,0.0,0.0,85,0.00,,---,0.00,VWS V14.01,2013-05-01 12:01:00,
2013-05-01 07:06:00,60.8,55.9,29.92,SSE,168,0.0,0.0,84,0.00,,---,0.00,VWS V14.01,2013-05-01 12:06:00,
2013-05-01 07:11:00,61.3,56.1,29.92,SSE,167,0.0,1.0,83,0.00,,---,0.00,VWS V14.01,2013-05-01 12:11:00,
2013-05-01 07:16:00,61.7,56.2,29.93,SSE,168,0.0,1.0,82,0.00,,---,0.00,VWS V14.01,2013-05-01 12:16:00,
2013-05-01 07:21:00,62.1,56.5,29.93,SSE,167,0.0,1.0,82,0.00,,---,0.00,VWS V14.01,2013-05-01 12:21:00,
2013-05-01 07:26:00,62.3,56.4,29.93,SSE,167,0.0,1.0,81,0.00,,---,0.00,VWS V14.01,2013-05-01 12:26:00,
2013-05-01 07:31:00,62.7,56.8,29.93,SSE,167,0.0,1.0,81,0.00,,---,0.00,VWS V14.01,2013-05-01 12:31:00,
2013-05-01 07:36:00,63.3,57.4,29.93,South,171,0.0,3.0,81,0.00,,---,0.00,VWS V14.01,2013-05-01 12:36:00,
2013-05-01 07:41:00,63.9,57.6,29.93,South,171,0.0,3.0,80,0.00,,---,0.00,VWS V14.01,2013-05-01 12:41:00,
2013-05-01 07:46:00,64.6,57.6,29.94,SE,136,0.0,3.0,78,0.00,,---,0.00,VWS V14.01,2013-05-01 12:46:00,
2013-05-01 07:51:00,65.3,58.3,29.94,SE,125,0.0,3.0,78,0.00,,---,0.00,VWS V14.01,2013-05-01 12:51:00,
2013-05-01 07:56:00,65.6,57.8,29.94,ESE,115,3.0,5.0,76,0.00,,---,0.00,VWS V14.01,2013-05-01 12:56:00,
2013-05-01 08:01:00,66.0,58.2,29.94,SSE,150,0.0,5.0,76,0.00,,---,0.00,VWS V14.01,2013-05-01 13:01:00,
2013-05-01 08:06:00,66.5,58.7,29.94,SSE,163,0.0,3.0,76,0.00,,---,0.00,VWS V14.01,2013-05-01 13:06:00,
2013-05-01 08:11:00,66.8,58.6,29.94,ENE,65,0.0,4.0,75,0.00,,---,0.00,VWS V14.01,2013-05-01 13:11:00,
2013-05-01 08:16:00,67.1,59.3,29.94,East,90,0.0,7.0,76,0.00,,---,0.00,VWS V14.01,2013-05-01 13:16:00,
2013-05-01 08:21:00,67.4,59.2,29.94,SE,140,4.0,7.0,75,0.00,,---,0.00,VWS V14.01,2013-05-01 13:21:00,
2013-05-01 08:26:00,67.5,58.9,29.94,South,170,5.0,7.0,74,0.00,,---,0.00,VWS V14.01,2013-05-01 13:26:00,
2013-05-01 08:31:00,67.5,59.3,29.95,SSE,149,0.0,8.0,75,0.00,,---,0.00,VWS V14.01,2013-05-01 13:31:00,
2013-05-01 08:36:00,67.4,59.2,29.95,South,175,4.0,10.0,75,0.00,,---,0.00,VWS V14.01,2013-05-01 13:36:00,
2013-05-01 08:41:00,67.6,59.4,29.95,SSE,156,0.0,10.0,75,0.00,,---,0.00,VWS V14.01,2013-05-01 13:41:00,
2013-05-01 08:46:00,67.9,59.7,29.95,SSE,166,0.0,10.0,75,0.00,,---,0.00,VWS V14.01,2013-05-01 13:46:00,
2013-05-01 08:51:00,68.6,60.4,29.95,SSE,150,6.0,10.0,75,0.00,,---,0.00,VWS V14.01,2013-05-01 13:51:00,
2013-05-01 08:56:00,69.2,60.6,29.95,SSW,194,1.0,10.0,74,0.00,,---,0.00,VWS V14.01,2013-05-01 13:56:00,
2013-05-01 09:01:00,69.6,60.2,29.95,South,171,4.0,11.0,72,0.00,,---,0.00,VWS V14.01,2013-05-01 14:01:00,
2013-05-01 09:06:00,70.0,60.6,29.95,South,176,3.0,6.0,72,0.00,,---,0.00,VWS V14.01,2013-05-01 14:06:00,
2013-05-01 09:11:00,70.2,60.8,29.95,South,171,9.0,12.0,72,0.00,,---,0.00,VWS V14.01,2013-05-01 14:11:00,
2013-05-01 09:16:00,70.5,60.7,29.95,South,174,4.0,13.0,71,0.00,,---,0.00,VWS V14.01,2013-05-01 14:16:00,
2013-05-01 09:21:00,71.1,61.6,29.95,SE,134,3.0,13.0,72,0.00,,---,0.00,VWS V14.01,2013-05-01 14:21:00,
2013-05-01 09:26:00,71.9,62.0,29.95,South,184,4.0,13.0,71,0.00,,---,0.00,VWS V14.01,2013-05-01 14:26:00,
2013-05-01 09:31:00,72.2,61.9,29.95,SSW,192,1.0,13.0,70,0.00,,---,0.00,VWS V14.01,2013-05-01 14:31:00,
2013-05-01 09:36:00,72.1,61.4,29.95,East,96,0.0,6.0,69,0.00,,---,0.00,VWS V14.01,2013-05-01 14:36:00,
2013-05-01 09:41:00,71.8,61.5,29.95,NE,41,0.0,10.0,70,0.00,,---,0.00,VWS V14.01,2013-05-01 14:41:00,
2013-05-01 09:46:00,71.9,61.6,29.95,SSW,205,1.0,10.0,70,0.00,,---,0.00,VWS V14.01,2013-05-01 14:46:00,
2013-05-01 09:51:00,71.8,61.1,29.95,SSE,167,2.0,10.0,69,0.00,,---,0.00,VWS V14.01,2013-05-01 14:51:00,
2013-05-01 09:56:00,71.8,61.9,29.95,SSE,153,0.0,10.0,71,0.00,,---,0.00,VWS V14.01,2013-05-01 14:56:00,
2013-05-01 10:01:00,72.3,62.0,29.96,SSE,159,0.0,10.0,70,0.00,,---,0.00,VWS V14.01,2013-05-01 15:01:00,
2013-05-01 10:06:00,73.2,62.8,29.96,East,80,0.0,4.0,70,0.00,,---,0.00,VWS V14.01,2013-05-01 15:06:00,
2013-05-01 10:11:00,73.9,63.1,29.96,SE,137,1.0,4.0,69,0.00,,---,0.00,VWS V14.01,2013-05-01 15:11:00,
2013-05-01 10:16:00,74.2,63.0,29.96,SSE,166,4.0,6.0,68,0.00,,---,0.00,VWS V14.01,2013-05-01 15:16:00,
2013-05-01 10:21:00,74.2,62.5,29.96,SSE,163,3.0,7.0,67,0.00,,---,0.00,VWS V14.01,2013-05-01 15:21:00,
2013-05-01 10:26:00,74.3,63.1,29.96,SE,142,3.0,12.0,68,0.00,,---,0.00,VWS V14.01,2013-05-01 15:26:00,
2013-05-01 10:31:00,75.2,63.9,29.96,South,173,1.0,12.0,68,0.00,,---,0.00,VWS V14.01,2013-05-01 15:31:00,
2013-05-01 10:36:00,76.3,64.1,29.96,East,90,0.0,3.0,66,0.00,,---,0.00,VWS V14.01,2013-05-01 15:36:00,
2013-05-01 10:41:00,76.8,63.7,29.96,SE,141,2.0,7.0,64,0.00,,---,0.00,VWS V14.01,2013-05-01 15:41:00,
2013-05-01 10:46:00,77.1,64.0,29.96,WSW,252,0.0,7.0,64,0.00,,---,0.00,VWS V14.01,2013-05-01 15:46:00,
2013-05-01 10:51:00,77.9,64.3,29.96,South,169,1.0,7.0,63,0.00,,---,0.00,VWS V14.01,2013-05-01 15:51:00,
2013-05-01 10:56:00,79.0,64.4,29.96,South,178,1.0,7.0,61,0.00,,---,0.00,VWS V14.01,2013-05-01 15:56:00,
2013-05-01 11:01:00,79.3,64.7,29.95,East,95,0.0,7.0,61,0.00,,---,0.00,VWS V14.01,2013-05-01 16:01:00,
2013-05-01 11:06:00,79.1,65.0,29.95,SSW,193,0.0,6.0,62,0.00,,---,0.00,VWS V14.01,2013-05-01 16:06:00,
2013-05-01 11:11:00,79.6,64.0,29.95,SSE,151,5.0,7.0,59,0.00,,---,0.00,VWS V14.01,2013-05-01 16:11:00,
2013-05-01 11:16:00,79.7,65.1,29.95,ESE,122,1.0,10.0,61,0.00,,---,0.00,VWS V14.01,2013-05-01 16:16:00,
2013-05-01 11:21:00,79.6,64.5,29.95,ENE,71,0.0,10.0,60,0.00,,---,0.00,VWS V14.01,2013-05-01 16:21:00,
2013-05-01 11:26:00,80.1,65.0,29.95,South,175,1.0,10.0,60,0.00,,---,0.00,VWS V14.01,2013-05-01 16:26:00,
2013-05-01 11:31:00,80.4,65.3,29.95,SSW,192,2.0,10.0,60,0.00,,---,0.00,VWS V14.01,2013-05-01 16:31:00,
2013-05-01 11:36:00,80.7,64.6,29.95,ESE,122,3.0,5.0,58,0.00,,---,0.00,VWS V14.01,2013-05-01 16:36:00,
2013-05-01 11:41:00,80.5,64.4,29.95,SSW,209,2.0,10.0,58,0.00,,---,0.00,VWS V14.01,2013-05-01 16:41:00,
2013-05-01 11:46:00,80.1,65.0,29.95,SSE,159,1.0,11.0,60,0.00,,---,0.00,VWS V14.01,2013-05-01 16:46:00,
2013-05-01 11:51:00,80.3,64.2,29.95,SE,144,0.0,11.0,58,0.00,,---,0.00,VWS V14.01,2013-05-01 16:51:00,
2013-05-01 11:56:00,80.5,64.4,29.95,SSE,147,0.0,11.0,58,0.00,,---,0.00,VWS V14.01,2013-05-01 16:56:00,
2013-05-01 12:01:00,80.7,65.1,29.95,South,171,0.0,11.0,59,0.00,,---,0.00,VWS V14.01,2013-05-01 17:01:00,
2013-05-01 12:06:00,81.4,65.2,29.95,ENE,57,0.0,4.0,58,0.00,,---,0.00,VWS V14.01,2013-05-01 17:06:00,
2013-05-01 12:11:00,81.9,64.7,29.95,South,184,1.0,8.0,56,0.00,,---,0.00,VWS V14.01,2013-05-01 17:11:00,
2013-05-01 12:16:00,82.0,64.8,29.95,SE,134,3.0,8.0,56,0.00,,---,0.00,VWS V14.01,2013-05-01 17:16:00,
2013-05-01 12:21:00,82.4,66.2,29.95,South,174,2.0,8.0,58,0.00,,---,0.00,VWS V14.01,2013-05-01 17:21:00,
2013-05-01 12:26:00,83.0,65.2,29.95,ESE,119,2.0,8.0,55,0.00,,---,0.00,VWS V14.01,2013-05-01 17:26:00,
2013-05-01 12:31:00,82.5,64.2,29.95,SSE,148,1.0,10.0,54,0.00,,---,0.00,VWS V14.01,2013-05-01 17:31:00,
2013-05-01 12:36:00,83.0,64.7,29.95,South,177,2.0,7.0,54,0.00,,---,0.00,VWS V14.01,2013-05-01 17:36:00,
2013-05-01 12:41:00,82.9,65.1,29.95,ENE,67,4.0,9.0,55,0.00,,---,0.00,VWS V14.01,2013-05-01 17:41:00,
2013-05-01 12:46:00,82.4,64.6,29.95,SSW,198,2.0,9.0,55,0.00,,---,0.00,VWS V14.01,2013-05-01 17:46:00,
2013-05-01 12:51:00,82.4,65.1,29.95,South,169,0.0,9.0,56,0.00,,---,0.00,VWS V14.01,2013-05-01 17:51:00,
2013-05-01 12:56:00,82.3,64.5,29.95,East,86,7.0,9.0,55,0.00,,---,0.00,VWS V14.01,2013-05-01 17:56:00,
2013-05-01 13:01:00,80.8,64.2,29.95,ENE,74,0.0,9.0,57,0.00,,---,0.00,VWS V14.01,2013-05-01 18:01:00,
2013-05-01 13:06:00,80.7,64.1,29.95,SSE,154,0.0,3.0,57,0.00,,---,0.00,VWS V14.01,2013-05-01 18:06:00,
2013-05-01 13:11:00,81.2,65.0,29.95,South,189,2.0,3.0,58,0.00,,---,0.00,VWS V14.01,2013-05-01 18:11:00,
2013-05-01 13:16:00,81.6,64.9,29.95,ENE,67,1.0,4.0,57,0.00,,---,0.00,VWS V14.01,2013-05-01 18:16:00,
2013-05-01 13:21:00,81.6,64.4,29.95,SSE,149,0.0,4.0,56,0.00,,---,0.00,VWS V14.01,2013-05-01 18:21:00,
2013-05-01 13:26:00,81.8,65.6,29.95,ENE,76,0.0,7.0,58,0.00,,---,0.00,VWS V14.01,2013-05-01 18:26:00,
2013-05-01 13:31:00,81.6,63.9,29.95,ENE,67,2.0,7.0,55,0.00,,---,0.00,VWS V14.01,2013-05-01 18:31:00,
2013-05-01 13:36:00,81.4,63.7,29.95,ENE,65,0.0,2.0,55,0.00,,---,0.00,VWS V14.01,2013-05-01 18:36:00,
2013-05-01 13:41:00,81.4,64.2,29.95,East,86,1.0,5.0,56,0.00,,---,0.00,VWS V14.01,2013-05-01 18:41:00,
2013-05-01 13:46:00,81.4,65.2,29.95,South,187,3.0,6.0,58,0.00,,---,0.00,VWS V14.01,2013-05-01 18:46:00,
2013-05-01 13:51:00,82.2,64.4,29.95,East,83,0.0,6.0,55,0.00,,---,0.00,VWS V14.01,2013-05-01 18:51:00,
2013-05-01 13:56:00,83.2,65.4,29.95,East,85,0.0,6.0,55,0.00,,---,0.00,VWS V14.01,2013-05-01 18:56:00,
2013-05-01 14:01:00,83.8,62.6,29.94,ENE,76,0.0,6.0,49,0.00,,---,0.00,VWS V14.01,2013-05-01 19:01:00,
2013-05-01 14:06:00,83.8,63.2,29.94,South,173,1.0,4.0,50,0.00,,---,0.00,VWS V14.01,2013-05-01 19:06:00,
2013-05-01 14:11:00,83.1,64.2,29.94,NE,56,2.0,5.0,53,0.00,,---,0.00,VWS V14.01,2013-05-01 19:11:00,
2013-05-01 14:16:00,81.9,64.2,29.94,East,86,3.0,5.0,55,0.00,,---,0.00,VWS V14.01,2013-05-01 19:16:00,
2013-05-01 14:21:00,81.3,64.1,29.94,East,99,6.0,6.0,56,0.00,,---,0.00,VWS V14.01,2013-05-01 19:21:00,
2013-05-01 14:26:00,80.5,63.9,29.94,East,91,2.0,7.0,57,0.00,,---,0.00,VWS V14.01,2013-05-01 19:26:00,
2013-05-01 14:31:00,80.1,63.0,29.94,East,101,2.0,7.0,56,0.00,,---,0.00,VWS V14.01,2013-05-01 19:31:00,
2013-05-01 14:36:00,80.5,63.9,29.94,ESE,103,1.0,7.0,57,0.00,,---,0.00,VWS V14.01,2013-05-01 19:36:00,
2013-05-01 14:41:00,81.4,63.7,29.94,ESE,105,5.0,9.0,55,0.00,,---,0.00,VWS V14.01,2013-05-01 19:41:00,
2013-05-01 14:46:00,81.1,64.4,29.94,East,86,0.0,9.0,57,0.00,,---,0.00,VWS V14.01,2013-05-01 19:46:00,
2013-05-01 14:51:00,80.4,63.8,29.94,East,88,0.0,9.0,57,0.00,,---,0.00,VWS V14.01,2013-05-01 19:51:00,
2013-05-01 14:56:00,79.8,63.7,29.94,NE,56,0.0,9.0,58,0.00,,---,0.00,VWS V14.01,2013-05-01 19:56:00,
2013-05-01 15:01:00,79.1,64.5,29.94,SSE,166,1.0,9.0,61,0.00,,---,0.00,VWS V14.01,2013-05-01 20:01:00,
2013-05-01 15:06:00,77.7,64.1,29.94,ENE,67,2.0,6.0,63,0.01,,---,0.01,VWS V14.01,2013-05-01 20:06:00,
2013-05-01 15:11:00,76.4,65.5,29.94,East,86,0.0,6.0,69,0.01,,---,0.01,VWS V14.01,2013-05-01 20:11:00,
2013-05-01 15:16:00,76.1,66.0,29.94,East,86,0.0,6.0,71,0.01,,---,0.01,VWS V14.01,2013-05-01 20:16:00,
2013-05-01 15:21:00,76.0,65.9,29.94,East,86,0.0,6.0,71,0.01,,---,0.01,VWS V14.01,2013-05-01 20:21:00,
2013-05-01 15:26:00,76.0,65.5,29.94,East,86,0.0,6.0,70,0.01,,---,0.01,VWS V14.01,2013-05-01 20:26:00,
2013-05-01 15:31:00,75.7,65.2,29.93,NNW,337,0.0,6.0,70,0.01,,---,0.01,VWS V14.01,2013-05-01 20:31:00,
2013-05-01 15:36:00,75.3,66.1,29.93,NNW,338,0.0,1.0,73,0.01,,---,0.01,VWS V14.01,2013-05-01 20:36:00,
2013-05-01 15:41:00,75.0,65.8,29.93,NNW,338,0.0,1.0,73,0.01,,---,0.01,VWS V14.01,2013-05-01 20:41:00,
2013-05-01 15:46:00,74.8,65.6,29.93,NNW,338,0.0,2.0,73,0.01,,---,0.01,VWS V14.01,2013-05-01 20:46:00,
2013-05-01 15:51:00,74.8,65.6,29.93,NNW,334,3.0,3.0,73,0.01,,---,0.01,VWS V14.01,2013-05-01 20:51:00,
2013-05-01 15:56:00,74.8,64.8,29.93,NNW,331,0.0,3.0,71,0.01,,---,0.01,VWS V14.01,2013-05-01 20:56:00,
2013-05-01 16:02:00,75.1,65.9,29.93,NNW,331,0.0,3.0,73,0.01,,---,0.01,VWS V14.01,2013-05-01 21:02:00,
2013-05-01 16:06:00,75.6,65.5,29.93,NNW,331,1.0,1.0,71,0.01,,---,0.01,VWS V14.01,2013-05-01 21:06:00,
2013-05-01 16:11:00,76.3,66.2,29.93,NNW,330,1.0,2.0,71,0.01,,---,0.01,VWS V14.01,2013-05-01 21:11:00,
2013-05-01 16:17:00,77.0,66.1,29.93,NNW,327,1.0,4.0,69,0.01,,---,0.01,VWS V14.01,2013-05-01 21:17:00,
2013-05-01 16:22:00,77.6,65.8,29.93,NNW,327,0.0,4.0,67,0.01,,---,0.01,VWS V14.01,2013-05-01 21:22:00,
2013-05-01 16:27:00,79.0,65.8,29.93,NNW,327,1.0,4.0,64,0.01,,---,0.01,VWS V14.01,2013-05-01 21:27:00,
2013-05-01 16:32:00,80.4,66.2,29.92,ENE,78,0.0,6.0,62,0.01,,---,0.01,VWS V14.01,2013-05-01 21:32:00,
2013-05-01 16:37:00,80.6,63.5,29.92,ENE,71,3.0,7.0,56,0.00,,---,0.01,VWS V14.01,2013-05-01 21:37:00,
2013-05-01 16:42:00,80.9,63.8,29.92,ESE,109,0.0,7.0,56,0.00,,---,0.01,VWS V14.01,2013-05-01 21:42:00,
2013-05-01 16:47:00,80.9,62.2,29.92,East,88,2.0,7.0,53,0.00,,---,0.01,VWS V14.01,2013-05-01 21:47:00,
2013-05-01 16:52:00,80.9,62.2,29.92,ENE,76,2.0,7.0,53,0.00,,---,0.01,VWS V14.01,2013-05-01 21:52:00,
2013-05-01 16:57:00,81.4,62.1,29.92,East,93,0.0,7.0,52,0.00,,---,0.01,VWS V14.01,2013-05-01 21:57:00,
2013-05-01 17:02:00,81.6,61.7,29.92,ESE,123,5.0,7.0,51,0.00,,---,0.01,VWS V14.01,2013-05-01 22:02:00,
2013-05-01 17:07:00,81.3,62.0,29.92,East,82,2.0,5.0,52,0.00,,---,0.01,VWS V14.01,2013-05-01 22:07:00,
2013-05-01 17:12:00,81.0,61.7,29.92,ENE,67,5.0,7.0,52,0.00,,---,0.01,VWS V14.01,2013-05-01 22:12:00,
2013-05-01 17:17:00,80.7,61.5,29.92,East,87,3.0,10.0,52,0.00,,---,0.01,VWS V14.01,2013-05-01 22:17:00,
2013-05-01 17:22:00,80.4,61.7,29.92,ENE,76,0.0,10.0,53,0.00,,---,0.01,VWS V14.01,2013-05-01 22:22:00,
2013-05-01 17:27:00,80.1,61.4,29.92,East,85,4.0,10.0,53,0.00,,---,0.01,VWS V14.01,2013-05-01 22:27:00,
2013-05-01 17:32:00,79.8,61.2,29.92,East,85,2.0,2.0,53,0.00,,---,0.01,VWS V14.01,2013-05-01 22:32:00,
2013-05-01 17:37:00,79.7,61.6,29.92,East,94,0.0,4.0,54,0.00,,---,0.01,VWS V14.01,2013-05-01 22:37:00,
2013-05-01 17:42:00,79.5,61.9,29.92,East,84,1.0,4.0,55,0.00,,---,0.01,VWS V14.01,2013-05-01 22:42:00,
2013-05-01 17:47:00,79.4,61.8,29.91,ENE,78,0.0,4.0,55,0.00,,---,0.01,VWS V14.01,2013-05-01 22:47:00,
2013-05-01 17:52:00,79.4,61.8,29.91,East,99,0.0,4.0,55,0.00,,---,0.01,VWS V14.01,2013-05-01 22:52:00,
2013-05-01 17:57:00,79.5,61.9,29.91,ENE,74,0.0,5.0,55,0.00,,---,0.01,VWS V14.01,2013-05-01 22:57:00,
2013-05-01 18:02:00,79.6,62.5,29.91,East,86,0.0,0.0,56,0.00,,---,0.01,VWS V14.01,2013-05-01 23:02:00,
2013-05-01 18:07:00,79.7,62.1,29.91,East,80,0.0,3.0,55,0.00,,---,0.01,VWS V14.01,2013-05-01 23:07:00,
2013-05-01 18:12:00,79.9,63.3,29.91,ENE,78,0.0,4.0,57,0.00,,---,0.01,VWS V14.01,2013-05-01 23:12:00,
2013-05-01 18:17:00,80.1,62.5,29.91,ESE,108,4.0,4.0,55,0.00,,---,0.01,VWS V14.01,2013-05-01 23:17:00,
2013-05-01 18:22:00,79.9,61.3,29.91,East,90,0.0,10.0,53,0.00,,---,0.01,VWS V14.01,2013-05-01 23:22:00,
2013-05-01 18:27:00,79.6,61.5,29.91,East,83,5.0,10.0,54,0.00,,---,0.01,VWS V14.01,2013-05-01 23:27:00,
2013-05-01 18:32:00,79.4,61.8,29.91,East,93,2.0,2.0,55,0.00,,---,0.01,VWS V14.01,2013-05-01 23:32:00,
2013-05-01 18:37:00,79.3,61.8,29.91,East,82,0.0,2.0,55,0.00,,---,0.01,VWS V14.01,2013-05-01 23:37:00,
2013-05-01 18:42:00,79.2,62.2,29.91,ESE,108,1.0,2.0,56,0.00,,---,0.01,VWS V14.01,2013-05-01 23:42:00,
2013-05-01 18:47:00,79.0,61.5,29.92,East,88,0.0,3.0,55,0.00,,---,0.01,VWS V14.01,2013-05-01 23:47:00,
2013-05-01 18:52:00,78.8,61.3,29.92,East,100,0.0,3.0,55,0.00,,---,0.01,VWS V14.01,2013-05-01 23:52:00,
2013-05-01 18:57:00,78.6,61.6,29.92,ENE,78,0.0,5.0,56,0.00,,---,0.01,VWS V14.01,2013-05-01 23:57:00,
2013-05-01 19:02:00,78.4,61.4,29.92,ENE,78,0.0,5.0,56,0.00,,---,0.01,VWS V14.01,2013-05-02 00:02:00,
2013-05-01 19:07:00,78.2,60.7,29.92,ENE,78,0.0,1.0,55,0.00,,---,0.01,VWS V14.01,2013-05-02 00:07:00,
2013-05-01 19:12:00,78.0,61.0,29.92,ENE,78,0.0,1.0,56,0.00,,---,0.01,VWS V14.01,2013-05-02 00:12:00,
2013-05-01 19:17:00,77.7,60.8,29.92,ENE,78,0.0,2.0,56,0.00,,---,0.01,VWS V14.01,2013-05-02 00:17:00,
2013-05-01 19:22:00,77.5,60.6,29.92,ENE,78,0.0,2.0,56,0.00,,---,0.01,VWS V14.01,2013-05-02 00:22:00,
2013-05-01 19:27:00,77.2,60.3,29.92,ENE,78,0.0,2.0,56,0.00,,---,0.01,VWS V14.01,2013-05-02 00:27:00,
2013-05-01 19:32:00,76.8,60.4,29.92,ENE,78,0.0,0.0,57,0.00,,---,0.01,VWS V14.01,2013-05-02 00:32:00,
2013-05-01 19:37:00,76.5,60.6,29.92,ENE,78,0.0,1.0,58,0.00,,---,0.01,VWS V14.01,2013-05-02 00:37:00,
2013-05-01 19:42:00,76.1,60.8,29.92,ENE,78,0.0,1.0,59,0.00,,---,0.01,VWS V14.01,2013-05-02 00:42:00,
2013-05-01 19:47:00,75.8,60.5,29.92,ENE,78,0.0,1.0,59,0.00,,---,0.01,VWS V14.01,2013-05-02 00:47:00,
2013-05-01 19:52:00,75.6,60.3,29.92,ENE,78,0.0,1.0,59,0.00,,---,0.01,VWS V14.01,2013-05-02 00:52:00,
2013-05-01 19:57:00,75.3,60.5,29.92,ENE,78,0.0,1.0,60,0.00,,---,0.01,VWS V14.01,2013-05-02 00:57:00,
2013-05-01 20:02:00,75.0,60.2,29.93,ENE,78,0.0,0.0,60,0.00,,---,0.01,VWS V14.01,2013-05-02 01:02:00,
2013-05-01 20:07:00,74.7,60.4,29.93,ENE,78,0.0,0.0,61,0.00,,---,0.01,VWS V14.01,2013-05-02 01:07:00,
2013-05-01 20:12:00,74.4,60.1,29.93,ENE,78,0.0,0.0,61,0.00,,---,0.01,VWS V14.01,2013-05-02 01:12:00,
2013-05-01 20:17:00,74.1,61.2,29.93,ENE,78,0.0,0.0,64,0.00,,---,0.01,VWS V14.01,2013-05-02 01:17:00,
2013-05-01 20:22:00,73.8,60.9,29.93,ENE,78,0.0,0.0,64,0.00,,---,0.01,VWS V14.01,2013-05-02 01:22:00,
2013-05-01 20:27:00,73.4,60.5,29.93,ENE,78,0.0,0.0,64,0.00,,---,0.01,VWS V14.01,2013-05-02 01:27:00,
2013-05-01 20:32:00,73.0,61.0,29.94,ENE,78,0.0,0.0,66,0.00,,---,0.01,VWS V14.01,2013-05-02 01:32:00,
2013-05-01 20:37:00,72.4,61.2,29.94,ENE,78,0.0,0.0,68,0.00,,---,0.01,VWS V14.01,2013-05-02 01:37:00,
2013-05-01 20:42:00,71.7,61.0,29.94,ENE,78,0.0,0.0,69,0.00,,---,0.01,VWS V14.01,2013-05-02 01:42:00,
2013-05-01 20:47:00,71.1,60.8,29.94,ENE,78,0.0,0.0,70,0.00,,---,0.01,VWS V14.01,2013-05-02 01:47:00,
2013-05-01 20:52:00,70.4,61.0,29.94,ENE,78,0.0,0.0,72,0.00,,---,0.01,VWS V14.01,2013-05-02 01:52:00,
2013-05-01 20:57:00,69.8,60.4,29.94,ENE,78,0.0,0.0,72,0.00,,---,0.01,VWS V14.01,2013-05-02 01:57:00,
2013-05-01 21:02:00,69.4,60.4,29.95,ENE,78,0.0,0.0,73,0.00,,---,0.01,VWS V14.01,2013-05-02 02:02:00,
2013-05-01 21:07:00,69.0,60.4,29.95,ENE,78,0.0,0.0,74,0.00,,---,0.01,VWS V14.01,2013-05-02 02:07:00,
2013-05-01 21:12:00,68.6,60.4,29.95,ENE,78,0.0,0.0,75,0.00,,---,0.01,VWS V14.01,2013-05-02 02:12:00,
2013-05-01 21:17:00,68.3,60.5,29.95,ENE,78,0.0,0.0,76,0.00,,---,0.01,VWS V14.01,2013-05-02 02:17:00,
2013-05-01 21:22:00,68.1,60.3,29.95,ENE,78,0.0,0.0,76,0.00,,---,0.01,VWS V14.01,2013-05-02 02:22:00,
2013-05-01 21:27:00,68.0,60.5,29.95,ENE,78,0.0,0.0,77,0.00,,---,0.01,VWS V14.01,2013-05-02 02:27:00,
2013-05-01 21:32:00,67.7,60.6,29.95,ENE,78,0.0,0.0,78,0.00,,---,0.01,VWS V14.01,2013-05-02 02:32:00,
2013-05-01 21:37:00,67.4,60.3,29.95,ENE,78,0.0,0.0,78,0.00,,---,0.01,VWS V14.01,2013-05-02 02:37:00,
2013-05-01 21:42:00,67.2,60.1,29.95,ENE,78,0.0,0.0,78,0.00,,---,0.01,VWS V14.01,2013-05-02 02:42:00,
2013-05-01 21:47:00,67.0,60.6,29.95,ENE,78,0.0,0.0,80,0.00,,---,0.01,VWS V14.01,2013-05-02 02:47:00,
2013-05-01 21:52:00,66.7,60.3,29.95,ENE,78,0.0,0.0,80,0.00,,---,0.01,VWS V14.01,2013-05-02 02:52:00,
2013-05-01 21:57:00,66.5,60.2,29.95,ENE,78,0.0,0.0,80,0.00,,---,0.01,VWS V14.01,2013-05-02 02:57:00,
2013-05-01 22:02:00,66.3,60.3,29.96,ENE,78,0.0,0.0,81,0.00,,---,0.01,VWS V14.01,2013-05-02 03:02:00,
2013-05-01 22:07:00,66.1,60.1,29.96,ENE,78,0.0,0.0,81,0.00,,---,0.01,VWS V14.01,2013-05-02 03:07:00,
2013-05-01 22:12:00,66.0,60.0,29.96,ENE,78,0.0,0.0,81,0.00,,---,0.01,VWS V14.01,2013-05-02 03:12:00,
2013-05-01 22:17:00,65.8,60.2,29.95,ENE,78,0.0,0.0,82,0.00,,---,0.01,VWS V14.01,2013-05-02 03:17:00,
2013-05-01 22:22:00,65.7,60.1,29.95,ENE,78,0.0,0.0,82,0.00,,---,0.01,VWS V14.01,2013-05-02 03:22:00,
2013-05-01 22:27:00,65.6,60.0,29.95,ENE,78,0.0,0.0,82,0.00,,---,0.01,VWS V14.01,2013-05-02 03:27:00,
2013-05-01 22:32:00,65.5,59.9,29.95,ENE,78,0.0,0.0,82,0.00,,---,0.01,VWS V14.01,2013-05-02 03:32:00,
2013-05-01 22:37:00,65.4,59.8,29.95,ENE,78,0.0,0.0,82,0.00,,---,0.01,VWS V14.01,2013-05-02 03:37:00,
2013-05-01 22:42:00,65.3,60.0,29.95,ENE,78,0.0,0.0,83,0.00,,---,0.01,VWS V14.01,2013-05-02 03:42:00,
2013-05-01 22:47:00,65.2,60.2,29.95,ENE,78,0.0,0.0,84,0.00,,---,0.01,VWS V14.01,2013-05-02 03:47:00,
2013-05-01 22:52:00,65.1,60.2,29.95,ENE,78,0.0,0.0,84,0.00,,---,0.01,VWS V14.01,2013-05-02 03:52:00,
2013-05-01 22:57:00,64.9,60.0,29.95,ENE,78,0.0,0.0,84,0.00,,---,0.01,VWS V14.01,2013-05-02 03:57:00,
2013-05-01 23:01:00,64.8,59.9,29.95,ENE,78,0.0,0.0,84,0.00,,---,0.01,VWS V14.01,2013-05-02 04:01:00,
2013-05-01 23:06:00,64.6,60.0,29.95,ENE,78,0.0,0.0,85,0.00,,---,0.01,VWS V14.01,2013-05-02 04:06:00,
2013-05-01 23:11:00,64.5,59.9,29.95,ENE,78,0.0,0.0,85,0.00,,---,0.01,VWS V14.01,2013-05-02 04:11:00,
2013-05-01 23:16:00,64.3,59.7,29.94,ENE,78,0.0,0.0,85,0.00,,---,0.01,VWS V14.01,2013-05-02 04:16:00,
2013-05-01 23:21:00,64.2,59.9,29.94,ENE,78,0.0,0.0,86,0.00,,---,0.01,VWS V14.01,2013-05-02 04:21:00,
2013-05-01 23:26:00,64.0,59.7,29.94,ENE,78,0.0,0.0,86,0.00,,---,0.01,VWS V14.01,2013-05-02 04:26:00,
2013-05-01 23:31:00,63.8,59.9,29.94,ENE,78,0.0,0.0,87,0.00,,---,0.01,VWS V14.01,2013-05-02 04:31:00,
2013-05-01 23:36:00,63.7,59.8,29.94,ENE,78,0.0,0.0,87,0.00,,---,0.01,VWS V14.01,2013-05-02 04:36:00,
2013-05-01 23:41:00,63.6,60.0,29.94,ENE,78,0.0,0.0,88,0.00,,---,0.01,VWS V14.01,2013-05-02 04:41:00,
2013-05-01 23:46:00,63.5,60.2,29.94,ENE,78,0.0,0.0,89,0.00,,---,0.01,VWS V14.01,2013-05-02 04:46:00,
2013-05-01 23:51:00,63.4,59.5,29.94,ENE,78,0.0,0.0,87,0.00,,---,0.01,VWS V14.01,2013-05-02 04:51:00,
2013-05-01 23:56:00,63.4,59.8,29.94,ENE,78,0.0,0.0,88,0.00,,---,0.01,VWS V14.01,2013-05-02 04:56:00,